www.pogodaiklimat.ru

Погода и климат >> Архив погоды >> Филиппины >> Балер Радар


ПОГОДА в Балер Радар

  • Прогноз погоды в Балер Радар
  • Монитор погоды в Балер Радар

АРХИВ ПОГОДЫ в Балер Радар

Время (UTC), дата Ветер
(напр.,м/с)
 
Видим.   Явления Облачность Т
(С)
Тd
(С)
f
(%)
Тe
(С)
Тes
(С)
Комфортность P
(гПа)
Po
(гПа)
Тmin
(С)
Tmax
(С)
R
(мм)
R24
(мм)
S
(см)
21 16.07 З 6 10 км слаб. дождь 10/4 480 м
[Sc As op]
+24.0 +23.3 96 +32 +32 очень
душно
997.4 977.2 0.4
00 17.07 З 4 20 км {дождь} 10/3 500 м
[Cu Sc Ac As]
+24.5 +23.0 91 +32 +33 очень
душно
999.2 979.0 +23.0 14
03 17.07 З 3 25 км 10/3 540 м
[Cu med, cong Ac As]
+26.9 +24.3 86 +38 +41 очень
душно
999.2 979.0
06 17.07 З 5 30 км 10/3 540 м
[Cu med, cong Ac As]
+28.0 +25.5 86 +41 +43 опасность
перегрева
998.6 978.5
09 17.07 З 2 25 км в посл. час ливневой дождь 10/3 540 м
[Cu med, cong Ac As]
+26.9 +24.1 85 +37 +38 очень
душно
998.5 978.3 0.6
12 17.07 З 4 10 км слаб. ливневой дождь 10/4 480 м
[Cu Sc Ac As]
+25.8 +22.3 81 +34 +34 очень
душно
1000.4 980.2 +29.5 0.8
15 17.07 С 1 15 км {ливн. осадки} 10/4 500 м
[Cu med, cong Ac As]
+25.7 +23.2 86 +34 +34 очень
душно
1002.1 981.9 0.8
18 17.07 З 2 15 км {ливн. осадки} 10/4 500 м
[Cu med, cong Ac As]
+26.5 +23.0 81 +35 +35 очень
душно
1000.7 980.6 0.8
21 17.07 З 1 15 км 10/4 500 м
[Cu med, cong Ac As]
+25.9 +22.1 80 +34 +34 очень
душно
1001.2 981.0
00 18.07 ЮЗ 3 25 км осадки на расстоянии 9/4 480 м
[Cu Sc Ac As]
+27.5 +24.4 83 +39 +40 очень
душно
1002.3 982.2 +24.3 2
03 18.07 С 1 30 км 9/4 540 м
[Cu med, cong Ac As]
+28.5 +25.4 83 +42 +48 опасность
перегрева
1003.1 983.0
06 18.07 штиль 0 25 км осадки на расстоянии 10/4 480 м
[Cu Sc Ac As]
+29.8 +27.6 88 +48 +52 опасность
перегрева
1002.5 982.5
09 18.07 Ю 4 25 км 10/4 540 м
[Cu med, cong Ac As]
+28.0 +24.4 81 +39 +40 очень
душно
1003.0 982.9
12 18.07 Ю 2 18 км 9/4 540 м
[Cu med, cong Ac As]
+26.9 +24.3 86 +38 +38 очень
душно
1005.0 984.9 +32.0
15 18.07 Ю 1 18 км 8/3 540 м
[Cu med, cong Ac As]
+26.6 +23.3 82 +36 +36 очень
душно
1006.1 986.0
18 18.07 штиль 0 18 км 9/4 540 м
[Cu med, cong Ac As]
+26.7 +23.1 81 +36 +36 очень
душно
1005.5 985.4
21 18.07 З 4 18 км 9/4 540 м
[Cu med, cong Ac As]
+26.9 +23.1 80 +36 +36 очень
душно
1005.3 985.1
00 19.07 штиль 0 30 км 8/3 540 м
[Cu med, cong Ac As]
+28.6 +26.5 88 +44 +47 опасность
перегрева
1007.0 986.9 +25.6
03 19.07 ЮВ 3 30 км 6/3 540 м
[Cu med, cong Ac As]
+30.2 +27.8 87 +49 +58 опасность
перегрева
1007.2 987.1
06 19.07 штиль 0 25 км гроза без осадков 10/4 500 м
[Cb calv As op Cs]
+31.6 +27.1 77 +50 +56 опасность
перегрева
1006.8 986.8
09 19.07 штиль 0 30 км {гроза} 6/3 540 м
[Cu med, cong Ac trans]
+31.6 +27.1 77 +50 +51 опасность
перегрева
1006.1 986.0
12 19.07 штиль 0 15 км {гроза} 3/3 540 м
[Cu med, cong]
+29.4 +26.3 83 +45 +45 опасность
перегрева
1008.3 988.2 +32.0
15 19.07 З 5 15 км 9/3 540 м
[Cu med, cong Ac As]
+27.0 +24.4 86 +38 +38 очень
душно
1009.1 989.0
18 19.07 З 5 15 км 9/3 540 м
[Cu med, cong Ac As]
+26.8 +24.4 87 +38 +38 очень
душно
1008.1 988.1
21 19.07 З 6 15 км 1/1 540 м
[Cu med, cong]
+27.0 +24.4 86 +38 +38 очень
душно
1008.1 988.0
00 20.07 З 8 30 км 9/1 540 м
[Cu med, cong Ac As]
+27.8 +24.1 80 +39 +39 очень
душно
1009.2 989.1 +26.0
03 20.07 З 5 30 км 9/1 540 м
[Cu med, cong Ac As]
+32.0 +26.9 74 +49 +53 опасность
перегрева
1009.1 989.1
06 20.07 ЮВ 1 30 км 9/3 540 м
[Cu med, cong Cs]
+32.2 +26.8 73 +50 +61 опасность
перегрева
1007.9 987.9
09 20.07 штиль 0 30 км 10/3 540 м
[Cu med, cong Ac As Ci sp]
+31.2 +27.2 79 +49 +50 опасность
перегрева
1007.1 987.0
12 20.07 С 1 15 км 10/3 540 м
[Cu med, cong Ac As]
+28.2 +26.6 91 +44 +44 опасность
перегрева
1009.7 989.6 +33.0
15 20.07 штиль 0 15 км 10/3 540 м
[Cu med, cong Ac As]
+27.0 +24.4 86 +38 +38 очень
душно
1011.2 991.0
18 20.07 штиль 0 15 км гроза без осадков {ливн. осадки} 10/1 540 м
[Cb calv Ac As]
+26.0 +24.7 93 +37 +37 очень
душно
1009.1 989.0 3
21 20.07 З 4 15 км в посл. час гроза 10/4 540 м
[Cu med, cong Ac As]
+26.2 +24.6 91 +37 +37 очень
душно
1008.6 988.5
00 21.07 штиль 0 30 км 10/1 540 м
[Cu med, cong Cs]
+27.0 +25.0 89 +39 +46 очень
душно
1010.2 990.0 +24.5 3
03 21.07 штиль 0 30 км 9/3 540 м
[Cu med, cong Ac As]
+30.4 +27.2 83 +48 +56 опасность
перегрева
1010.0 989.9
06 21.07 Ю 2 25 км 9/3 540 м
[Cu med, cong Ac As]
+30.0 +27.7 88 +49 +54 опасность
перегрева
1008.4 988.2
09 21.07 Ю 2 20 км {гроза} 10/3 540 м
[Cu med, cong Ac As Cs]
+28.8 +26.6 88 +45 +45 опасность
перегрева
1008.2 988.0
12 21.07 З 5 12 км гроза без осадков {ливн. осадки} 10/5 480 м
[Cb cap Ac As]
+24.2 +22.3 89 +31 +31 очень
душно
1010.1 989.8 +31.8 0.0
15 21.07 С 2 12 км {гроза} 10/3 540 м
[Cu med, cong Ac As]
+27.0 +23.0 79 +36 +36 очень
душно
1010.0 989.9
18 21.07 СЗ 2 12 км 10/3 540 м
[Cu med, cong Ac As]
+26.5 +22.6 79 +35 +35 очень
душно
1008.3 988.1
21 21.07 Ю 2 15 км 10/3 540 м
[Cu med, cong Ac As]
+27.0 +23.7 82 +37 +37 очень
душно
1008.2 988.0
00 22.07 штиль 0 20 км 9/3 540 м
[Cu med, cong Ac As Ci sp]
+27.0 +23.7 82 +37 +41 очень
душно
1009.3 989.0 +23.5 0.0
03 22.07 штиль 0 25 км 9/3 540 м
[Cu med, cong Cs]
+30.8 +28.5 88 +52 +69 опасность
перегрева
1008.1 988.0
06 22.07 штиль 0 25 км 9/3 540 м
[Cu med, cong Cs]
+30.8 +26.6 78 +47 +60 опасность
перегрева
1006.9 986.8
09 22.07 штиль 0 25 км 9/3 540 м
[Cu med, cong Cs]
+30.4 +27.2 83 +48 +50 опасность
перегрева
1006.1 986.0
12 22.07 штиль 0 15 км 3/3 540 м
[Cu med, cong]
+28.2 +25.5 85 +41 +41 опасность
перегрева
1008.4 988.2 +33.0
15 22.07 СЗ 2 15 км 3/3 540 м
[Cu med, cong]
+26.2 +24.6 91 +37 +37 очень
душно
1008.9 988.8
18 22.07 СЗ 2 12 км 9/3 540 м
[Cu med, cong Ac As]
+25.0 +23.6 92 +34 +34 очень
душно
1008.2 988.0
21 22.07 СЗ 2 12 км {ливн. осадки} 9/3 540 м
[Cu med, cong Ac As]
+25.1 +23.9 93 +34 +34 очень
душно
1007.9 987.8 2
00 23.07 З 3 15 км слаб. дождь 10/4 480 м
[Sc As op]
+25.0 +23.6 92 +34 +35 очень
душно
1008.5 988.3 +24.0 4
03 23.07 СЗ 1 20 км {дождь} 10/3 540 м
[Cu med, cong Ac As Cs]
+26.1 +25.2 95 +38 +46 очень
душно
1008.3 988.0 0.6
06 23.07 ЮВ 3 25 км {дождь} 8/3 540 м
[Cu med, cong Ac As]
+29.8 +27.5 87 +48 +53 опасность
перегрева
1006.2 986.0 0.6
09 23.07 ЮВ 3 30 км 5/3 540 м
[Cu med, cong Ac As]
+30.0 +26.7 83 +47 +48 опасность
перегрева
1005.3 985.2
12 23.07 штиль 0 18 км зарница 6/3 500 м
[Cb calv Ac As]
+27.3 +24.4 84 +38 +38 очень
душно
1008.1 987.8 +31.5
15 23.07 штиль 0 18 км зарница 8/3 500 м
[Cb calv Ac As]
+26.7 +24.5 88 +38 +38 очень
душно
1008.5 988.2

 

Местоположение метеостанции Балер Радар (Филиппины): широта 15.75 долгота 121.63 высота над уровнем моря 175 м.

В архиве по умолчанию представлена погода в Балер Радар за последнюю неделю. Архивные данные за месяц целиком и за предыдущие месяцы, начиная с января 2011 года, Вы можете получить, выбрав интересующий диапазон дат из раскрывающегося списка и нажав кнопку "Ввод!".


*Определитесь, кто Вы:
робот инопланетянин человек

Внимание! Время в таблицах - всемирное. Для получения местного времени необходимо прибавить поправку, которая равна 8 ч.

Смотрите также архив погоды в соседних городах и на ближайших метеорологических станциях:

Погода в Кабанатуане (Филиппины) (78 км)
Погода в Касигуране (Филиппины) (78 км)
Погода в Инфанте (Филиппины) (111 км)
Погода на Базе ВВС Clark (Филиппины) (132 км)
Погода в Багио (Филиппины) (133 км)
Погода в Научном саду (Филиппины) (141 км)
Погода в Танае (Филиппины) (142 км)
Погода в Дагупане (Филиппины) (143 км)
Погода в Маниле (Филиппины) (148 км)
Погода в Аэропорту Ninoy Aquino (Филиппины) (153 км)

Пояснения к столбцам:

Ветер - указаны скорость ветра в м/с - средняя за 10 мин, порывы в срок и между сроками (в фигурных скобках) и направление, откуда дует ветер: С - северный, СВ - северо-восточный, В - восточный, ЮВ - юго-восточный, Ю - южный, ЮЗ - юго-западный, З - западный, СЗ - северо-западный.
Видимость - горизонтальная дальность видимости в метрах или километрах. При видимости от 1 до 10 км при отсутствии осадков обычно наблюдается дымка, при ухудшении видимости до 1 км и менее - туман. В сухую погоду видимость может ухудшаться дымом, пылью или мглою.
Явления - указаны атмосферные явления, наблюдавшиеся в срок или в последний час перед сроком; фигурными скобками обозначены явления, наблюдавшиеся между сроками (за 1-3 часа до срока); квадратными скобками обозначены град или гололедные отложения с указанием их диаметра в мм.
Облачность - указаны через наклонную черту общая и нижняя облачность в баллах и высота нижней границы облаков в метрах; квадратными скобками обозначены формы облаков: Ci - перистые, Cs - перисто-слоистые, Cc - перисто-кучевые, Ac - высококучевые, As - высокослоистые, Sc - слоисто-кучевые, Ns - слоисто-дождевые, Cu - кучевые, Cb - кучево-дождевые. Подробнее классификацию облаков см. в Атласе облаков (PDF).
T - Температура воздуха - температура, измеренная на высоте 2 м над землей.
Td - Температура точки росы - температура, при понижении до которой содержащийся в воздухе водяной пар достигнет насыщения.
f - Относительная влажность воздуха - влажноcть воздуха, измеренная на высоте 2 м над землей.
Te - Эффективная температура - температура, которую ощущает одетый по сезону человек в тени. Характеристика душности погоды. При расчете учитывается влияние влажности воздуха и скорости ветра на теплоощущения человека.
Tes - Эффективная температура на солнце - температура, которую ощущает человек, с поправкой на солнечный нагрев. Характеристика знойности погоды. Зависит от высоты солнца над горизонтом, облачности и скорости ветра. Ночью, в пасмурную погоду, а также при ветре 12 м/с и более поправка равна нулю.
P - Атмосферное давление - приведенное к уровню моря атмосферное давление.
Po - Атмосферное давление - измеренное на уровне метеостанции атмосферное давление.
Tmin - Минимальная температура - минимум температуры воздуха на высоте 2 м над землей.
Tmax - Максимальная температура - максимум температуры воздуха на высоте 2 м над землей.
R - Количество осадков - Количество выпавших осадков за период времени, мм. При наведении курсора мыши на число - период времени, за который выпало указанное количество осадков.
R24 - Количество осадков - Количество выпавших осадков за 24 часа, мм.
S - Снежный покров - Высота снежного покрова, см. При наведении курсора мыши на число - состояние снежного покрова и степень покрытия местности в баллах.